Theta_e
355 359 359 361 362 359 358 359 357 358 359 361 362 358 354 351 356 356 357 352 351 353 353 354 353 353 354 352 351 351 351 348 350 351 351 351 351 349 347 345 348 352 352
354 359 359 361 361 361 361 360 361 361 361 362 362 358 355 354 352 356 352 352 351 351 351 351 351 351 350 351 350 349 347 350 350 350 349 352 348 343 338 342 341 342 344
355 359 360 361 362 360 359 359 360 361 363 366 361 361 357 354 351 353 352 351 352 352 351 350 349 350 350 349 349 349 349 347 347 348 348 349 345 342 341 339 337 340 342
356 357 359 360 359 359 357 358 360 362 364 358 361 358 357 355 352 352 353 351 352 353 350 350 349 349 350 346 347 346 346 347 347 349 348 346 347 345 344 344 346 347 347
360 362 359 359 359 360 361 360 363 366 359 357 356 356 353 352 346 344 348 349 349 349 348 348 349 348 347 344 341 343 344 346 347 349 348 347 346 346 346 346 346 346 347
366 364 362 362 361 363 366 369 365 359 355 355 355 352 350 341 337 341 346 346 345 345 347 345 346 346 347 347 347 345 345 346 344 346 346 346 346 345 344 345 345 346 346
369 362 365 364 365 368 367 364 361 360 357 353 353 353 342 338 344 345 348 347 348 347 346 347 347 344 339 338 342 344 345 346 344 344 345 343 342 339 339 341 341 342 343
368 368 366 368 368 364 362 361 359 356 354 354 352 350 346 338 341 344 346 348 347 342 341 344 341 336 340 341 342 342 345 343 342 342 339 338 338 336 336 338 339 339 340
365 365 364 363 362 362 359 359 355 353 352 350 350 351 347 336 338 343 346 346 345 343 340 337 337 334 335 339 343 344 341 341 342 342 339 339 337 335 334 334 335 338 338
361 361 361 361 358 358 357 354 352 351 349 348 347 346 346 335 334 339 343 346 347 346 345 341 337 335 334 336 338 341 342 340 341 340 339 338 337 334 333 332 333 332 331
358 359 358 357 357 356 354 352 352 349 347 348 348 343 341 342 332 334 340 345 343 343 344 343 337 337 336 337 338 338 338 339 340 338 338 337 337 336 334 333 330 329 330
357 356 356 355 354 355 355 353 350 348 348 348 350 347 342 335 334 333 334 341 341 342 339 341 339 339 338 337 336 336 338 340 338 338 336 337 336 336 336 334 331 330 326
356 356 355 355 355 355 355 354 354 349 346 344 347 349 346 342 341 341 341 340 339 341 342 341 340 340 340 340 337 337 338 339 338 337 336 335 336 335 335 332 332 329 326
355 355 355 355 355 354 354 352 353 351 350 343 340 341 342 345 346 345 345 343 343 342 344 345 345 342 341 339 340 337 339 337 338 337 336 335 335 332 334 333 332 330 326
356 354 353 353 354 351 352 349 341 336 342 344 342 341 340 343 334 335 337 339 338 338 339 342 341 341 340 340 342 339 338 338 338 336 336 334 334 333 333 332 332 331 327
354 352 351 347 351 350 351 342 340 337 335 335 340 340 335 332 328 328 329 329 331 333 337 344 341 339 339 336 338 339 338 338 339 336 335 334 333 331 332 333 332 332 330
350 347 346 345 345 346 345 342 343 341 338 337 335 338 335 332 329 331 333 333 331 330 332 340 343 341 337 336 337 335 336 335 337 338 337 335 334 332 331 330 332 330 331
350 345 347 345 346 344 347 346 345 345 344 339 336 332 330 329 332 334 334 334 336 339 335 337 344 341 341 339 337 337 335 335 334 336 336 336 333 333 333 331 330 331 331
350 348 343 342 344 341 341 344 345 346 346 341 337 333 333 334 335 336 337 337 338 342 336 338 341 340 339 338 337 336 336 334 334 336 335 335 333 332 333 330 328 328 331
349 349 344 347 343 343 343 340 341 344 342 345 344 337 338 338 338 338 338 339 340 339 337 336 340 336 339 338 338 338 337 335 334 334 334 335 334 333 332 330 329 331 331
345 347 346 343 345 343 340 341 339 342 341 340 342 344 343 340 343 342 344 344 343 338 338 337 336 338 339 339 338 339 336 333 335 333 333 334 334 334 331 330 330 330 330
346 347 347 345 347 343 343 342 341 342 340 340 343 345 341 337 337 338 341 343 344 339 339 338 338 335 336 335 336 336 337 334 334 334 332 334 333 333 332 330 328 329 328
348 346 342 343 341 341 341 342 342 341 341 342 340 341 336 338 341 341 339 339 339 339 339 340 338 336 336 333 336 335 335 336 337 336 335 335 333 333 331 331 330 330 329
342 343 342 339 340 343 342 340 339 339 340 342 341 340 341 341 339 341 339 338 338 339 339 340 340 338 335 334 336 336 337 336 333 336 336 334 333 332 332 332 331 329 330
342 339 340 341 341 340 341 342 342 340 340 340 338 338 339 338 339 339 339 338 338 339 339 339 338 340 338 336 336 337 332 329 325 330 336 334 334 333 334 333 331 331 330
344 337 338 340 342 342 339 338 339 339 339 338 337 338 338 338 338 338 338 338 338 338 338 337 337 339 338 339 339 339 337 329 327 327 328 334 334 333 333 333 333 332 331
Wind_Speed
23 27 23 22 19 18 15 14 15 12 9 8 9 8 5 7 10 9 8 8 6 6 8 10 9 10 15 15 17 18 20 18 12 22 21 23 7 3 18 22 8 10 15
22 26 25 21 19 17 17 16 13 12 10 7 9 8 5 1 5 7 6 7 9 9 9 10 12 14 18 17 17 18 16 16 16 15 21 20 22 18 13 12 15 13 18
12 15 17 19 18 19 19 16 17 11 6 3 3 3 8 10 4 5 8 13 12 13 13 14 16 14 15 17 20 13 11 13 13 14 18 18 24 25 23 24 23 22 21
12 14 15 17 18 16 17 18 12 11 6 5 5 6 7 5 5 7 8 11 11 10 12 10 11 12 11 14 13 11 8 12 15 15 18 20 19 23 24 26 25 19 19
11 9 15 15 15 7 9 10 8 12 9 7 7 6 6 6 7 8 3 7 7 7 9 10 9 9 11 11 12 11 12 13 15 15 15 17 16 15 13 14 17 17 17
3 7 10 10 12 10 9 14 10 6 5 10 13 6 6 6 7 6 6 6 6 8 10 10 8 7 8 9 11 11 11 11 12 12 10 12 14 15 15 16 16 10 4
8 9 11 10 10 10 14 11 9 9 13 12 10 6 4 5 5 8 7 7 9 11 12 14 12 11 12 8 6 9 10 6 6 9 12 13 12 16 16 15 17 15 10
5 9 11 12 16 11 13 14 14 13 14 13 10 6 3 5 5 7 5 9 9 11 11 12 11 12 12 12 10 11 10 8 7 8 11 13 13 15 15 13 14 15 16
11 13 14 14 16 18 18 15 16 15 13 11 8 6 3 6 5 3 4 4 7 8 11 12 10 12 12 10 13 9 7 9 7 6 9 9 12 14 15 14 19 14 9
16 15 17 18 20 17 16 16 14 12 12 10 8 7 6 7 6 4 7 8 8 6 5 9 13 13 14 13 13 12 12 11 9 6 7 9 10 13 15 17 16 13 14
17 18 18 18 18 18 16 14 12 14 13 11 9 7 6 6 9 8 8 9 10 12 10 7 10 8 12 13 12 11 11 11 11 6 9 9 9 10 11 14 14 17 15
19 17 17 18 17 16 14 13 12 13 12 9 8 10 6 8 11 13 12 7 7 11 7 4 4 5 4 8 10 10 10 11 8 9 10 8 8 8 9 9 14 14 19
19 17 15 15 17 15 14 13 13 13 12 10 10 14 11 7 5 6 7 9 9 4 2 4 3 4 6 7 5 10 11 12 12 12 11 10 7 8 5 12 11 13 18
19 15 15 16 15 14 15 15 13 14 18 16 9 10 9 10 7 1 3 2 4 5 5 9 11 9 8 4 4 6 6 8 8 10 12 10 8 11 9 8 8 10 18
17 16 15 13 13 11 5 12 9 8 6 9 6 5 6 10 6 2 0 1 4 6 8 6 6 4 5 8 6 3 7 9 10 11 10 11 11 9 10 10 9 12 13
17 17 17 15 14 14 12 8 7 4 3 1 3 5 6 6 3 1 3 5 8 9 9 8 2 8 8 10 12 9 8 11 8 7 8 9 9 10 9 8 11 11 11
16 17 16 18 19 18 15 13 11 8 5 4 5 6 3 1 2 3 5 7 10 12 12 9 4 5 2 6 7 11 7 7 7 6 6 6 6 5 8 8 10 11 11
15 14 13 14 13 13 21 20 16 14 10 9 8 9 9 8 6 6 8 11 15 17 15 12 8 7 3 2 4 6 7 8 7 5 4 3 6 5 4 2 8 8 7
13 12 13 12 7 10 8 13 17 21 17 15 13 13 11 12 11 11 10 14 14 9 6 9 8 8 7 5 2 6 4 5 4 3 3 3 2 2 5 9 7 6 6
15 11 14 15 10 9 3 7 5 15 11 18 19 16 14 15 15 17 16 14 16 0 8 8 4 0 5 2 3 5 2 4 4 4 4 3 3 3 4 4 5 7 6
16 13 12 10 12 11 13 13 11 11 11 12 8 22 16 15 14 14 19 17 16 3 8 5 6 5 7 3 4 5 3 5 2 3 3 0 0 2 4 3 5 5 6
20 17 13 12 11 5 10 12 12 6 4 1 19 21 15 12 9 14 12 16 16 4 8 2 3 5 6 3 2 3 5 4 3 2 4 3 2 1 3 4 2 4 7
14 19 14 13 12 11 6 7 5 6 7 8 7 19 18 14 15 16 2 3 10 3 6 5 3 2 2 3 2 1 4 5 3 3 3 2 4 2 5 4 3 5 5
10 13 21 19 18 9 7 6 7 11 7 6 9 1 15 13 6 8 2 2 7 4 3 6 7 8 5 3 3 3 5 4 2 3 4 4 4 5 5 7 9 6 7
13 12 10 15 13 8 10 9 13 14 10 9 9 10 6 6 6 7 7 8 7 4 8 10 10 9 9 9 5 4 4 6 5 6 5 4 6 6 6 8 7 6 5
14 13 10 7 14 14 12 10 8 8 6 4 6 7 4 5 9 9 7 5 5 7 6 9 11 11 11 12 10 13 8 5 5 3 8 6 8 6 6 8 9 7 6
Wind_Direction
197 190 197 205 214 223 229 230 238 254 273 278 272 289 297 300 303 291 287 298 317 311 293 286 291 297 287 289 291 289 288 280 280 291 288 297 320 48 209 236 272 283 307
191 193 196 196 206 211 218 228 228 235 251 275 285 292 264 26 330 312 325 301 294 294 284 281 287 295 292 305 300 290 292 288 283 279 291 299 300 303 295 300 307 303 297
172 186 192 195 206 218 210 216 217 207 215 262 345 55 5 353 334 321 307 300 298 293 287 285 287 295 304 305 304 304 305 310 306 296 293 297 300 301 308 314 314 311 307
203 203 206 201 214 215 224 204 199 183 175 133 132 19 354 360 340 322 333 321 317 309 310 299 304 310 318 331 329 330 330 323 325 314 299 294 294 302 303 309 317 327 316
196 236 203 196 208 186 129 126 158 145 143 124 82 64 38 63 349 327 325 327 333 339 338 335 322 318 326 340 337 325 331 332 326 316 317 324 323 324 333 328 323 328 322
203 252 145 144 136 129 118 140 154 126 96 90 85 88 65 20 15 33 67 10 358 355 353 356 13 36 18 1 358 350 340 328 336 338 346 346 346 353 351 342 334 331 328
189 204 160 148 136 135 127 116 120 123 111 106 103 96 71 57 68 65 57 43 43 42 40 38 47 11 350 348 352 350 352 353 357 343 352 13 18 359 344 346 344 336 307
174 157 154 159 147 132 131 135 133 123 109 103 102 103 97 59 60 52 82 78 76 49 57 49 34 20 32 33 40 26 25 31 17 16 22 13 14 10 6 351 344 336 332
136 129 135 143 139 136 133 128 120 110 105 108 117 120 104 56 56 49 81 123 100 77 62 55 42 29 27 15 19 354 29 23 13 30 32 30 23 20 14 11 11 9 354
128 135 135 133 129 124 120 115 116 120 130 129 122 105 79 53 47 47 36 35 151 142 108 63 37 37 35 36 30 24 31 10 27 40 51 49 32 18 27 32 26 25 4
136 131 126 126 126 124 123 127 132 135 125 131 123 109 110 78 59 59 53 54 50 28 95 59 11 45 50 46 40 45 22 10 13 56 49 33 21 18 28 34 43 39 21
132 132 133 136 133 131 131 128 132 137 141 147 155 139 106 85 75 70 70 77 53 53 49 20 21 38 33 46 44 32 27 24 22 40 46 41 31 21 26 48 53 46 31
135 135 149 135 130 141 149 160 161 169 161 171 195 180 157 167 108 89 80 70 56 55 22 352 342 335 332 342 4 38 44 28 21 17 46 31 34 18 51 58 71 45 41
137 150 141 137 153 172 179 183 204 195 196 188 185 160 141 178 169 73 317 317 343 326 302 306 304 308 299 305 353 32 35 24 23 23 44 37 50 55 57 62 83 61 57
148 148 155 162 176 187 222 103 92 71 65 46 97 126 141 133 119 112 165 277 299 303 312 323 58 83 343 5 245 110 57 47 30 24 37 44 68 56 64 50 70 83 80
163 171 181 166 192 203 175 139 136 127 134 144 92 92 100 109 85 335 303 288 285 301 304 301 126 75 45 22 359 72 47 29 27 13 56 51 46 42 42 40 71 88 104
184 190 183 190 183 195 175 176 188 194 186 181 186 187 186 191 246 279 293 290 282 277 278 294 189 150 106 44 16 43 37 16 353 24 22 32 35 45 30 54 80 94 104
211 200 225 211 245 173 173 189 190 176 182 194 189 193 212 228 240 252 269 287 294 276 257 251 217 155 167 94 23 55 30 50 11 352 19 32 42 21 26 99 84 89 95
217 225 221 221 238 146 211 202 201 184 174 179 185 191 205 220 235 250 260 275 287 321 68 19 128 138 154 165 138 78 72 22 15 341 349 347 40 36 13 34 121 96 74
215 253 213 245 168 176 190 248 253 163 155 184 185 189 204 224 240 247 244 250 267 164 73 22 161 75 145 127 208 114 41 46 32 355 11 26 53 355 357 348 67 115 93
196 209 227 246 269 193 201 217 245 193 196 224 175 171 195 211 241 244 231 233 237 136 108 49 343 37 167 119 120 171 92 37 70 348 257 335 248 312 332 355 348 143 124
191 183 203 228 266 247 231 210 206 180 249 231 157 174 191 212 259 269 254 238 191 144 170 129 111 27 81 354 260 113 202 309 182 235 310 294 192 185 293 332 81 68 133
225 167 180 206 241 253 263 263 314 199 201 202 207 185 200 222 248 256 132 347 174 167 229 185 160 163 187 310 307 42 273 232 202 215 245 327 228 219 254 284 241 177 154
196 198 166 188 209 195 220 226 254 275 297 315 332 30 206 235 277 110 85 316 298 318 316 228 211 186 177 162 43 113 129 127 261 248 235 255 253 268 252 278 253 208 185
210 212 197 170 157 204 253 255 221 226 223 198 230 264 301 309 240 242 236 222 231 246 271 270 271 221 195 202 199 226 281 315 308 251 213 231 233 258 256 280 288 238 234
228 171 197 196 172 184 194 240 253 275 299 275 285 282 261 285 302 316 328 333 308 292 306 309 297 249 203 199 208 215 228 292 305 273 227 229 225 229 228 258 279 289 230